Time,TemperatureF,DewpointF,PressureIn,WindDirection,WindDirectionDegrees,WindSpeedMPH,WindSpeedGustMPH,Humidity,HourlyPrecipIn,Conditions,Clouds,dailyrainin,SoftwareType,DateUTC
2013-04-12 00:08:00,-0.6,-5.3,30.35,West,270,0.0,-999.0,80,-99.99,,,0.00,Acu-Link.com,2013-04-12 08:08:00,
2013-04-12 00:24:00,-0.9,-5.6,30.36,West,270,0.0,-999.0,80,-99.99,,,0.00,Acu-Link.com,2013-04-12 08:24:00,
2013-04-12 00:39:00,-0.8,-5.2,30.36,West,270,0.0,-999.0,81,-99.99,,,0.00,Acu-Link.com,2013-04-12 08:39:00,
2013-04-12 00:54:00,-2.2,-6.8,30.35,West,270,0.0,-999.0,80,-99.99,,,0.00,Acu-Link.com,2013-04-12 08:54:00,
2013-04-12 01:09:00,-3.5,-7.6,30.36,West,270,0.0,-999.0,82,-99.99,,,0.00,Acu-Link.com,2013-04-12 09:09:00,
2013-04-12 01:24:00,-4.4,-8.5,30.37,West,270,0.0,-999.0,82,-99.99,,,0.00,Acu-Link.com,2013-04-12 09:24:00,
2013-04-12 01:39:00,-4.5,-7.6,30.36,West,270,0.0,-999.0,86,-99.99,,,0.00,Acu-Link.com,2013-04-12 09:39:00,
2013-04-12 01:54:00,-5.3,-8.9,30.36,West,270,0.0,-999.0,84,-99.99,,,0.00,Acu-Link.com,2013-04-12 09:54:00,
2013-04-12 02:10:00,-6.0,-9.3,30.37,West,270,2.7,-999.0,85,-99.99,,,0.00,Acu-Link.com,2013-04-12 10:10:00,
2013-04-12 02:25:00,-6.2,-10.0,30.38,West,270,0.0,-999.0,83,-99.99,,,0.00,Acu-Link.com,2013-04-12 10:25:00,
2013-04-12 02:40:00,-6.7,-10.5,30.38,West,270,0.0,-999.0,83,-99.99,,,0.00,Acu-Link.com,2013-04-12 10:40:00,
2013-04-12 02:55:00,-6.7,-10.2,30.38,West,270,0.0,-999.0,84,-99.99,,,0.00,Acu-Link.com,2013-04-12 10:55:00,
2013-04-12 03:10:00,-6.7,-10.5,30.38,West,270,0.0,-999.0,83,-99.99,,,0.00,Acu-Link.com,2013-04-12 11:10:00,
2013-04-12 03:25:00,-7.2,-10.7,30.38,West,270,0.0,-999.0,84,-99.99,,,0.00,Acu-Link.com,2013-04-12 11:25:00,
2013-04-12 03:40:00,-7.2,-11.0,30.39,West,270,0.0,-999.0,83,-99.99,,,0.00,Acu-Link.com,2013-04-12 11:40:00,
2013-04-12 03:55:00,-8.3,-12.5,30.39,West,270,0.0,-999.0,81,-99.99,,,0.00,Acu-Link.com,2013-04-12 11:55:00,
2013-04-12 04:11:00,-9.2,-13.4,30.39,West,270,0.0,-999.0,81,-99.99,,,0.00,Acu-Link.com,2013-04-12 12:11:00,
2013-04-12 04:56:00,-9.9,-14.1,30.41,West,270,0.0,-999.0,81,-99.99,,,0.00,Acu-Link.com,2013-04-12 12:56:00,
2013-04-12 05:11:00,-10.5,-14.7,30.41,West,270,0.0,-999.0,81,-99.99,,,0.00,Acu-Link.com,2013-04-12 13:11:00,
2013-04-12 05:56:00,-11.0,-15.2,30.40,West,270,0.0,-999.0,81,-99.99,,,0.00,Acu-Link.com,2013-04-12 13:56:00,
2013-04-12 06:27:00,-11.2,-15.6,30.42,West,270,0.0,-999.0,80,-99.99,,,0.00,Acu-Link.com,2013-04-12 14:27:00,
2013-04-12 06:42:00,-11.4,-15.6,30.43,West,270,0.0,-999.0,81,-99.99,,,0.00,Acu-Link.com,2013-04-12 14:42:00,
2013-04-12 06:57:00,-10.5,-14.4,30.42,West,270,0.0,-999.0,82,-99.99,,,0.00,Acu-Link.com,2013-04-12 14:57:00,
2013-04-12 07:12:00,-9.8,-14.0,30.43,West,270,0.0,-999.0,81,-99.99,,,0.00,Acu-Link.com,2013-04-12 15:12:00,
2013-04-12 07:27:00,-8.9,-12.9,30.43,West,270,0.0,-999.0,82,-99.99,,,0.00,Acu-Link.com,2013-04-12 15:27:00,
2013-04-12 07:42:00,-7.4,-11.7,30.43,West,270,0.0,-999.0,81,-99.99,,,0.00,Acu-Link.com,2013-04-12 15:42:00,
2013-04-12 07:58:00,-6.0,-10.0,30.44,West,270,0.0,-999.0,82,-99.99,,,0.00,Acu-Link.com,2013-04-12 15:58:00,
2013-04-12 08:13:00,-3.1,-7.0,30.43,West,270,0.0,-999.0,83,-99.99,,,0.00,Acu-Link.com,2013-04-12 16:13:00,
2013-04-12 08:28:00,1.2,-2.5,30.44,West,270,0.0,-999.0,84,-99.99,,,0.00,Acu-Link.com,2013-04-12 16:28:00,
2013-04-12 08:43:00,2.8,-1.7,30.44,West,270,0.0,-999.0,81,-99.99,,,0.00,Acu-Link.com,2013-04-12 16:43:00,
2013-04-12 08:58:00,5.7,1.4,30.44,West,270,0.0,-999.0,82,-99.99,,,0.00,Acu-Link.com,2013-04-12 16:58:00,
2013-04-12 09:13:00,6.6,0.7,30.44,West,270,0.0,-999.0,76,-99.99,,,0.00,Acu-Link.com,2013-04-12 17:13:00,
2013-04-12 09:28:00,9.1,0.4,30.45,West,270,0.0,-999.0,67,-99.99,,,0.00,Acu-Link.com,2013-04-12 17:28:00,
2013-04-12 09:43:00,11.3,0.9,30.44,West,270,2.2,-999.0,62,-99.99,,,0.00,Acu-Link.com,2013-04-12 17:43:00,
2013-04-12 09:58:00,13.6,-0.7,30.44,South,180,0.0,-999.0,52,-99.99,,,0.00,Acu-Link.com,2013-04-12 17:58:00,
2013-04-12 10:14:00,15.1,-0.6,30.44,South,180,2.2,-999.0,49,-99.99,,,0.00,Acu-Link.com,2013-04-12 18:14:00,
2013-04-12 10:29:00,14.5,-0.7,30.44,South,180,0.0,-999.0,50,-99.99,,,0.00,Acu-Link.com,2013-04-12 18:29:00,
2013-04-12 11:29:00,16.3,-0.4,30.45,ESE,112,1.7,-999.0,47,-99.99,,,0.00,Acu-Link.com,2013-04-12 19:29:00,
2013-04-12 11:44:00,18.9,-0.4,30.45,ESE,112,0.0,-999.0,42,-99.99,,,0.00,Acu-Link.com,2013-04-12 19:44:00,
2013-04-12 12:00:00,20.7,1.3,30.44,ESE,112,1.7,-999.0,42,-99.99,,,0.00,Acu-Link.com,2013-04-12 20:00:00,
2013-04-12 12:15:00,23.4,1.0,30.44,SSW,202,4.2,-999.0,37,-99.99,,,0.00,Acu-Link.com,2013-04-12 20:15:00,
2013-04-12 12:30:00,26.6,1.4,30.44,NE,45,0.0,-999.0,33,-99.99,,,0.00,Acu-Link.com,2013-04-12 20:30:00,
2013-04-12 12:45:00,27.7,1.7,30.43,West,270,1.1,-999.0,32,-99.99,,,0.00,Acu-Link.com,2013-04-12 20:45:00,
2013-04-12 13:00:00,28.4,3.0,30.43,South,180,2.2,-999.0,33,-99.99,,,0.00,Acu-Link.com,2013-04-12 21:00:00,
2013-04-12 13:15:00,29.1,3.0,30.43,SSE,157,2.7,-999.0,32,-99.99,,,0.00,Acu-Link.com,2013-04-12 21:15:00,
2013-04-12 13:30:00,28.4,3.0,30.43,ESE,112,3.7,-999.0,33,-99.99,,,0.00,Acu-Link.com,2013-04-12 21:30:00,
2013-04-12 13:45:00,30.2,3.9,30.43,SSE,157,3.2,-999.0,32,-99.99,,,0.00,Acu-Link.com,2013-04-12 21:45:00,
2013-04-12 14:00:00,33.3,4.5,30.43,NE,45,0.0,-999.0,29,-99.99,,,0.00,Acu-Link.com,2013-04-12 22:00:00,
2013-04-12 14:16:00,29.5,4.0,30.43,SW,225,4.7,-999.0,33,-99.99,,,0.00,Acu-Link.com,2013-04-12 22:16:00,
2013-04-12 15:16:00,29.7,4.8,30.42,SSE,157,5.8,-999.0,34,-99.99,,,0.00,Acu-Link.com,2013-04-12 23:16:00,
2013-04-12 15:46:00,29.5,5.9,30.41,ESE,112,3.7,-999.0,36,-99.99,,,0.00,Acu-Link.com,2013-04-12 23:46:00,
2013-04-12 16:17:00,28.2,5.3,30.41,SSE,157,4.2,-999.0,37,-99.99,,,0.00,Acu-Link.com,2013-04-13 00:17:00,
2013-04-12 16:32:00,30.2,6.5,30.41,SW,225,2.2,-999.0,36,-99.99,,,0.00,Acu-Link.com,2013-04-13 00:32:00,
2013-04-12 17:02:00,31.6,5.2,30.40,SW,225,1.7,-999.0,32,-99.99,,,0.00,Acu-Link.com,2013-04-13 01:02:00,
2013-04-12 17:17:00,32.7,6.1,30.41,SSE,157,2.7,-999.0,32,-99.99,,,0.00,Acu-Link.com,2013-04-13 01:17:00,
2013-04-12 17:32:00,30.6,5.0,30.40,SW,225,5.3,-999.0,33,-99.99,,,0.00,Acu-Link.com,2013-04-13 01:32:00,
2013-04-12 17:47:00,30.4,4.8,30.41,WSW,247,2.2,-999.0,33,-99.99,,,0.00,Acu-Link.com,2013-04-13 01:47:00,
2013-04-12 18:03:00,31.3,5.6,30.40,SSE,157,2.2,-999.0,33,-99.99,,,0.00,Acu-Link.com,2013-04-13 02:03:00,
2013-04-12 18:18:00,31.8,4.7,30.41,SW,225,2.7,-999.0,31,-99.99,,,0.00,Acu-Link.com,2013-04-13 02:18:00,
2013-04-12 18:33:00,29.1,4.9,30.41,SSW,202,1.1,-999.0,35,-99.99,,,0.00,Acu-Link.com,2013-04-13 02:33:00,
2013-04-12 18:48:00,26.4,4.3,30.41,SSW,202,3.7,-999.0,38,-99.99,,,0.00,Acu-Link.com,2013-04-13 02:48:00,
2013-04-12 19:03:00,26.2,4.7,30.41,South,180,1.7,-999.0,39,-99.99,,,0.00,Acu-Link.com,2013-04-13 03:03:00,
2013-04-12 19:18:00,25.7,4.2,30.41,SW,225,4.2,-999.0,39,-99.99,,,0.00,Acu-Link.com,2013-04-13 03:18:00,
2013-04-12 19:33:00,27.0,4.2,30.41,South,180,2.7,-999.0,37,-99.99,,,0.00,Acu-Link.com,2013-04-13 03:33:00,
2013-04-12 19:48:00,26.6,4.5,30.42,West,270,2.2,-999.0,38,-99.99,,,0.00,Acu-Link.com,2013-04-13 03:48:00,
2013-04-12 20:04:00,24.6,3.8,30.43,WSW,247,0.0,-999.0,40,-99.99,,,0.00,Acu-Link.com,2013-04-13 04:04:00,
2013-04-12 20:19:00,24.3,3.5,30.43,SSE,157,2.2,-999.0,40,-99.99,,,0.00,Acu-Link.com,2013-04-13 04:19:00,
2013-04-12 20:34:00,21.0,3.0,30.43,SSE,157,0.0,-999.0,45,-99.99,,,0.00,Acu-Link.com,2013-04-13 04:34:00,
2013-04-12 20:49:00,17.4,2.4,30.43,SSE,157,0.0,-999.0,51,-99.99,,,0.00,Acu-Link.com,2013-04-13 04:49:00,
2013-04-12 21:04:00,14.2,1.4,30.43,SSE,157,0.0,-999.0,56,-99.99,,,0.00,Acu-Link.com,2013-04-13 05:04:00,
2013-04-12 21:19:00,12.2,1.4,30.44,SSE,157,0.0,-999.0,61,-99.99,,,0.00,Acu-Link.com,2013-04-13 05:19:00,
2013-04-12 21:34:00,9.3,0.3,30.44,SSE,157,0.0,-999.0,66,-99.99,,,0.00,Acu-Link.com,2013-04-13 05:34:00,
2013-04-12 21:49:00,7.9,0.2,30.44,SSE,157,0.0,-999.0,70,-99.99,,,0.00,Acu-Link.com,2013-04-13 05:49:00,
2013-04-12 22:04:00,5.9,-1.7,30.44,SSE,157,0.0,-999.0,70,-99.99,,,0.00,Acu-Link.com,2013-04-13 06:04:00,
2013-04-12 22:19:00,4.6,-1.8,30.45,SSE,157,0.0,-999.0,74,-99.99,,,0.00,Acu-Link.com,2013-04-13 06:19:00,
2013-04-12 22:35:00,4.1,-2.0,30.45,SSE,157,0.0,-999.0,75,-99.99,,,0.00,Acu-Link.com,2013-04-13 06:35:00,
2013-04-12 22:50:00,3.2,-2.6,30.45,SSE,157,0.0,-999.0,76,-99.99,,,0.00,Acu-Link.com,2013-04-13 06:50:00,
2013-04-12 23:05:00,1.8,-4.0,30.46,SSE,157,0.0,-999.0,76,-99.99,,,0.00,Acu-Link.com,2013-04-13 07:05:00,
2013-04-12 23:20:00,1.6,-3.4,30.46,SSE,157,0.0,-999.0,79,-99.99,,,0.00,Acu-Link.com,2013-04-13 07:20:00,
2013-04-12 23:51:00,1.6,-3.6,30.46,SSE,157,0.0,-999.0,78,-99.99,,,0.00,Acu-Link.com,2013-04-13 07:51:00,